星链-34574 (STARLINK-34574)

导读 | 豆包AI

STARLINK-34574是美国SpaceX星链星座的卫星,于2025年6月28日发射,星链星座旨在为全球提供高速低延迟宽带互联网服务,该卫星延续星链项目技术路线,依托近地轨道部署,进一步扩充星链网络覆盖范围与服务容量,支撑星座全球互联的运营目标。

Basic Information
目录编号:
64714
目录名称:
STARLINK-34574
国际标识:
2025-142U
轨道中心:
EARTH
卫星名称:
星链-34574
卫星全名:
星链-34574 (STARLINK-34574)
卫星状态:
在轨 (已飞行305 天)
发射日期:
2025-06-28 UTC
国别 :
美国 (US)
星等 :
--
Orbit Information
数据来源 国际轨道数据 AOE轨道数据
星历时间 2026-04-29T14:08:24+0800
9小时前
查看轨道信息
2026-04-23T03:00:00+0800
6天前
查看轨道信息
半长轴 6950.178km 6950.18km
偏心率 0.0003651 0.0003347
轨道倾角 70.002° 70.000°
近地点辐角 268.831° 272.136°
升交点赤经 187.013° 203.308°
平近点角 91.243° 150.243°
近地点 569.503km 569.716km
远地点 574.579km 574.37km
周期 96.107分钟 96.107分钟
每日圈数 14.98335 14.983342
Detailed Information
固有亮度:
5
最大亮度:
2.5
卫星平台:
Starlink V1.0
覆盖范围:
全球
运营商:
太空探索技术公司
运营商所在国:
美国
制造商(研发单位):
太空探索技术公司
制造商所在国:
美国
使用方式:
暂无
Satellite Introduction
Starlink 计划是 SpaceX 推出的全球卫星互联网项目,通过发射低轨道卫星,为全球尤其是偏远地区提供高速、低延迟的互联网服务。自 2019 年起,Starlink 已部署数千颗卫星,旨在缩小全球数字鸿沟,推动互联网普及。该项目还为军事、航空等行业提供通信支持,带来广泛经济效益。
2D Orbit Map
3D Orbit Map
Orbit Altitude Analysis Chart
Orbit Inclination Analysis Chart
Orbit Comprehensive Analysis Chart
View Comprehensive Chart